Погода в Армавире

Погода в Армавире : погода сейчас, прогноз погоды и архив. Всё, что Вы хотите узнать о погоде в Армавире!

Поиск расширенной информации на нашем сайте:

Другие новости

Новости СМИ2

Главная страница сайта

Новости сайта

03.07.2017

Напоминаем, что на нашем специализированном сайте Метеоцентр.Азия вы можете получить высокодетализированные автоматические прогнозы погоды по пунктам России, СНГ и мира в авиационном формате (включающие направление и скорость ветра, видимость, явления погоды, количество и форму облачности, нижнюю и верхнюю границу облачности).


Погода в Армавире - сегодня

Время (UTC), дата Ветер
(°,м/с) 
Видим.   Явления Облачность Т
(°С)
Тd
(°С)
f(%) Тe
(°С)
Pmin
(гПа)
dP
(гПа)
Po
(мм)
O2
(г/м3)
Тmin Tmax R s Состояние
почвы
12 12.10.18 050 (СВ) 6-11{12}  10 км    ясно 
+19.5 +4 36 +20  1027.3  0.3  756  284           
15 12.10.18 050 (СВ) 4{11}  10 км    ясно 
+16 -2.3 28 +16  1028  0.4  757  288    +20.9       
18 12.10.18 070 (В) 6-11{13}  10 км    ясно 
+12 -2.1 37 +11  1029  0.8  757  293           
21 12.10.18 070 (В) 3{12}  10 км    ясно 
+10 -1.3 45 +10  1029.5  0.3  758  295           
00 13.10.18 080 (В) 3{10}  10 км    ясно 
+8.3 -2.4 47 +8  1028.9  -0.6  757  296           
03 13.10.18 070 (В) 10 км    ясно 
+7.6 -2.3 49 +7  1029.4  0.4  757  297  +7.5        сухая 
06 13.10.18 090 (В) 10 км    ясно 
+12.2 -0.1 43 +13  1029.7  0.6  758  292  +7.3         
09 13.10.18 080 (В) 5{10}  10 км    ясно 
+18.3 +1.2 32 +18  1028  -1.2  757  286           
12 13.10.18 060 (СВ) 5-10{11}  10 км    ясно 
+19.8 -1.7 23 +20  1026.6  -1.3  756  284           
15 13.10.18 060 (СВ) 2{10}  10 км    ясно 
+15.7 -5.1 23 +16  1027  -0.1  756  289    +20.1       
18 13.10.18 070 (В) 10 км    ясно 
+11.9 -6 28 +12  1027.2  756  292           
21 13.10.18 280 (З) 10 км    ясно 
+7.4 -3.4 46 +8  1027.1  -0.4  756  297           
00 14.10.18 010 (С) 10 км    ясно 
+3.8 -1.3 69 +5  1027.1  -0.2  755  300           
03 14.10.18 100 (В) 10 км    3/0 верхняя 
[Ci fib]
+3.2 -2.5 66 +4  1027.1  0.1  755  301  +2.6        сухая 
06 14.10.18 150 (ЮВ) 10 км    ясно 
+10.5 +0.4 50 +12  1026.8  0.2  756  293  +2.4         
09 14.10.18 170 (Ю) 10 км    8/0 верхняя 
[Ci]
+19.2 +0.2 28 +21  1025.2  -1  755  284           
12 14.10.18 030 (СВ) 10 км    8/0 верхняя 
[Ci]
+22.5 -3.5 17 +23  1023.5  -1.5  754  281           
15 14.10.18 050 (СВ) 10 км    10/0 верхняя 
[Ci]
+14.5 -1 34 +15  1023.7  -0.3  753  288    +22.9       
18 14.10.18 240 (ЮЗ) 10 км    ясно 
+10.3 -0.7 46 +11  1024.7  0.7  754  293           
21 14.10.18 тихо ()   10 км    ясно 
+6.5 +0.3 65 +7  1025.3  0.3  754  297           
00 15.10.18 тихо ()   10 км    ясно 
+3.6 +1.8 88 +4  1025.5  754  300           
03 15.10.18 150 (ЮВ) 10 км    3/0 верхняя 
[Ci fib]
+4.3 +0.6 77 +5  1025.8  0.4  755  299  +2.9        сухая 
06 15.10.18 160 (Ю) 10 км    10/0 верхняя 
[Ci]
+10.5 +2.5 58 +11  1025.9  0.4  755  293           
09 15.10.18 080 (В) 10 км    10/0 верхняя 
[Ci]
+21.6 +0 24 +22  1024.7  -0.4  755  282           
12 15.10.18 050 (СВ) 10 км    5/0 верхняя 
[Ci fib]
+22.9 +1.6 25 +23  1023.8  -0.8  754  280           
Время (UTC), дата Ветер
(°,м/с) 
Видим.   Явления Облачность Т
(°С)
Тd
(°С)
f(%) Тe
(°С)
Pmin
(гПа)
dP
(гПа)
Po
(мм)
O2
(г/м3)
Тmin Tmax R s Состояние
почвы

Для получения пояснительной информации подведите курсор к названию столбца.

ПОГОДА в Армавире - архив

Всё, что Вы хотите узнать о погоде в Армавире - удобно и подробно!

Выберите нужную дату (начиная с 1 января 2015* года) и нажмите кнопку "Найти".
Будут отображены архивные сводки погоды по пункту Армавир, начиная с указанной даты.


Отображать данные в формате CSV (для использования в таблицах Excel)


Внимание! Наш архив погоды предназначен исключительно для личного некоммерческого использования в познавательных целях. Если Вам необходимы официальные справки о состоянии погоды (для производственных, юридических, коммерческих и т.п. целей), обращайтесь в органы Росгидромета.

*Примечание: данная дата относится к архиву по метеостанциям СССР (Россия, СНГ, Балтия).
Архив по метеостанциям Зарубежной Европы и Азии (кроме Китая) хранится 10 дней, по другим регионам земного шара (Китай, Африка, Америка, Австралия, Океания) - 1 день.

Армавир - район местоположения метеостанции


Название, широта, долгота, высота метеостанции:
Армавир 45°ш. 41.1°д. 159 м над ур. моря [Российская Федерация]

Дополнительная информация

В oтличие oт бoльшинства пoгoдных сайтoв мы публикуем пoдрoбную метеoинфoрмацию в детальнoм прoфессиoнальнoм фoрмате.

Характеристики температуры и влажнoсти вoздуха измеряются на высoте 2 м в тени вдали oт зданий и деревьев.
Скoрoсть ветра измеряется на высoте 10 м (на урoвне рoста челoвека скoрoсть ветра ниже в 1.5-2 раза). Если метеoстанция нахoдится в гoрoде или в лесу, тo скoрoсть ветра занижена на 2-4 м/с пo сравнению с oткрытым местoм. Скoрoсть ветра над акватoриями крупных рек и oзёр, а также на вершинах хoлмoв на 2-5 м/с выше, чем в oбычных услoвиях.
Атмoсфернoе давление в разных тoчках местнoсти мoжет значительнo oтличаться oт давления на метеoстанции, в зависимoсти oт услoвий рельефа (при пoдъёме на 10 м давление пoнижается примернo на 1 мм рт.ст.).